Regional Weather Roundup
Issued by NWS

Home | Current Version | Previous Version | Graphics & Text | Print | Product List | Glossary On
Versions: 1 2 3 4 5 6 7 8 9 10 11 12 13 14 15 16 17 18 19 20 21 22 23 24 25 26 27 28 29 30 31 32 33 34 35 36 37 38 39 40 41 42 43 44 45 46 47 48 49 50
938
ASUS43 KTOP 021408
RWRKS

WEATHER ROUNDUP FOR KANSAS
NATIONAL WEATHER SERVICE GOODLAND KS
800 AM CST FRI DEC 02 2016

NOTE:  "FAIR" INDICATES FEW OR NO CLOUDS BELOW 12,000 FEET WITH NO
SIGNIFICANT WEATHER AND/OR OBSTRUCTIONS TO VISIBILITY.

KSZ001>006-013>018-027>032-041>047-021500-
NORTHWEST KANSAS

CITY           SKY/WX    TMP DP  RH WIND       PRES   REMARKS
GOODLAND       CLEAR     15   9  76 W6        30.14R
HAYS           CLEAR     16  11  80 CALM      30.19R
HILL CITY      CLEAR     16  11  80 W5        30.19R
RUSSELL        CLEAR     21  14  74 NW8       30.18R
$$

KSZ061>065-074>080-084>089-021500-
SOUTHWEST KANSAS

CITY           SKY/WX    TMP DP  RH WIND       PRES   REMARKS
DODGE CITY     CLOUDY    19  12  74 NW8       30.20R
ELKHART          N/A     24   7  48 NW5         N/A
GARDEN CITY    CLOUDY    15   6  67 W7        30.19R
GREAT BEND     CLEAR     19  13  77 W3        30.19R
LIBERAL        CLEAR     21   9  58 NW5       30.17R
PRATT          CLEAR     18  13  79 N7        30.16F
$$

KSZ066>073-081>083-090>101-021500-
SOUTHEAST KANSAS

CITY           SKY/WX    TMP DP  RH WIND       PRES   REMARKS
CHANUTE        CLEAR     39  26  59 E6        30.21R
COFFEYVILLE    CLEAR     35  29  78 NE9       30.19R
HUTCHINSON     CLEAR     23  17  78 NW3       30.21R
MEDICINE LODGE   N/A     26  19  74 SW6       30.19R
NEWTON         CLEAR     29  22  75 E7        30.20R
PARSONS        PTCLDY    40  28  62 NE6       30.20R
WICHITA INTL   PTCLDY    30  23  75 N5        30.19R
WICHITA JABRA  CLEAR     30  24  78 NE6       30.19R
WICHITA MCCONL CLEAR     33  24  71 NE7       30.19R
WINFIELD       CLEAR     36  26  67 NE6       30.17S
$$

KSZ007>012-019>026-033>040-048>060-102>105-021500-
NORTHEAST KANSAS

CITY           SKY/WX    TMP DP  RH WIND       PRES   REMARKS
CONCORDIA      CLEAR     20  17  88 NW3       30.20R
EMPORIA        CLEAR     27  25  92 NW3       30.21R
LAWRENCE       CLEAR     19  19 100 NW3       30.24R
MANHATTAN      CLEAR     20  17  88 CALM      30.23R
MARYSVILLE     CLEAR     19  18  93 N3        30.23R
OLATHE IND     CLEAR     27  24  89 CALM      30.24R
OLATHE EXE     CLEAR     29  23  78 CALM      30.23R
SALINA         CLEAR     20  16  84 S6        30.22R
TOPEKA BILLARD CLEAR     21  17  84 CALM      30.24R
TOPEKA FORBES  CLEAR     21  17  84 NW5       30.23R
$$




USA.gov is the U.S. government's official web portal to all federal, state and local government web resources and services.